Regional Weather Roundup
Issued by NWS

Home | Current Version | Previous Version | Graphics & Text | Print | Product List | Glossary On
Versions: 1 2 3 4 5 6 7 8 9 10 11 12 13 14 15 16 17 18 19 20 21 22 23 24 25 26 27 28 29 30 31 32 33 34 35 36 37 38 39 40 41 42 43 44 45 46 47 48 49 50
000
ASUS43 KLOT 310504
RWRIL

ILLINOIS REGIONAL WEATHER ROUNDUP
NATIONAL WEATHER SERVICE CHICAGO/ROMEOVILLE IL
1200 AM CDT WED AUG 31 2016

NOTE: "FAIR" INDICATES FEW OR NO CLOUDS BELOW 12,000 FEET WITH NO
SIGNIFICANT WEATHER AND/OR OBSTRUCTIONS TO VISIBILITY.

* THESE STATIONS ARE NOT UNDER NWS QUALITY CONTROL. THEY ALSO MAY NOT
  REPORT WEATHER SUCH AS PRECIPITATION OR FOG.

ILZ001-002-007-009-015-016-024-310600-
NORTHWEST ILLINOIS

CITY           SKY/WX    TMP DP  RH WIND       PRES   REMARKS
MOLINE         CLOUDY    73  70  90 CALM      30.08S
STERLING*      CLOUDY    71  70  96 W3        30.09R
SAVANNA*       CLEAR     69  69  98 CALM      30.09S FOG
$$

ILZ003-004-008-010-011-017-018-310600-
NORTH CENTRAL ILLINOIS

CITY           SKY/WX    TMP DP  RH WIND       PRES   REMARKS
ROCKFORD       CLOUDY    70  68  93 W3        30.09S
FREEPORT*      CLOUDY    68  67  96 CALM      30.11S
ROCHELLE*      CLOUDY    68  68 100 CALM      30.09S FOG
$$

ILZ005-006-012>014-019>023-310600-
NORTHEAST ILLINOIS

CITY           SKY/WX    TMP DP  RH WIND       PRES   REMARKS
CHICAGO-OHARE  CLOUDY    72  67  84 NW6       30.06S
CHICAGO-MIDWAY CLOUDY    76  67  73 NW7       30.05F
AURORA         CLOUDY    70  67  90 CALM      30.07F
LANSING*       CLOUDY    72  71  98 CALM      30.05F
JOLIET*        CLOUDY    73  71  93 N3        30.06F
WAUKEGAN       CLOUDY    71  68  90 VRB3      30.05S
DUPAGE AIRPORT CLOUDY    71  66  84 NW3       30.06F
KANKAKEE*      CLOUDY    73  72  96 W3        30.07R
WHEELING       CLOUDY    73  67  81 CALM      30.06F
MORRIS*        MOCLDY    70  69  96 CALM      30.06S
ROMEOVILLE*    CLOUDY    71  71 100 N3        30.07S
NORTHERLY ISL    N/A     72  68  87 N3          N/A
$$

LMZ740>746-310600-
SOUTHERN LAKE MICHIGAN

STATION/POSITION SKY/WX   TEMP    WIND        PRES    VSBY  WAVE
                          AIR SEA DIR/SP/G                  HT/PER
                          (F)     (DEG/KT/KT) (MB)    (MI)  (FT/S)
SOUTHERN BUOY              74 75  250/  8/  8 1016.9          1
WILMETTE HARBOR            72 74  320/  2/  4   N/A           0
HARRISON CRIB              74     360/  5/  5   N/A
BURNHAM HARBOR             72     360/  2/  4   N/A
CALUMET HARBOR             73     320/  1/  3 1017.4R
BURNS HARBOR               74     360/  2/  4 1017.9F
MICHIGAN CITY              72      30/  3/  3   N/A
MICHIGAN CITY 6N           74 76   10/  4/  6   N/A           1/ 3
ST. JOSEPH                 73 75  140/  2/  2 1017.2F         1
$$

ILZ025>027-034>036-040-047-049-050-058-095>099-310600-
WEST-CENTRAL ILLINOIS

CITY           SKY/WX    TMP DP  RH WIND       PRES   REMARKS
QUINCY         PTCLDY    72  70  93 CALM      30.09F FOG
GALESBURG*     CLOUDY    72  71  97 CALM      30.09S
MACOMB*        CLEAR     70  69  97 NW3       30.10S
JACKSONVILLE*  PTCLDY    70  69  97 CALM      30.08F FOG
PITTSFIELD*    PTCLDY    70  70  98 W3        30.11R
$$

ILZ028>032-037-038-041>044-048-051>054-059>061-310600-
CENTRAL ILLINOIS

CITY           SKY/WX    TMP DP  RH WIND       PRES   REMARKS
PONTIAC        CLOUDY    71  71 100 CALM      30.08S FOG
BLOOMINGTON    PTCLDY    73  72  96 W6        30.09S
DECATUR        MOCLDY    74  70  87 NW5       30.08S
PEORIA         MOCLDY    73  73 100 CALM      30.07F
LACON*         CLOUDY    72  71  97 CALM      30.06F
LINCOLN*       MOCLDY    73  72  97 CALM      30.07S
SPRINGFIELD    CLOUDY    71  69  93 CALM      30.08S
TAYLORVILLE    MOCLDY    70  70  99 CALM      30.08S
$$

ILZ033-039-045-046-055>057-062-063-310600-
EAST-CENTRAL ILLINOIS

CITY           SKY/WX    TMP DP  RH WIND       PRES   REMARKS
CHAMPAIGN      CLOUDY    72  70  93 NW3       30.07S
RANTOUL*       PTCLDY    73  72  98 W3        30.07S FOG
MATTOON        CLEAR     71  68  90 NW3       30.06F
PARIS*         PTCLDY    70  69  99 CALM      30.07S
$$

ILZ079-100>102-310600-
SOUTHWEST ILLINOIS

CITY           SKY/WX    TMP DP  RH WIND       PRES   REMARKS
ALTON          FOG       71  71  99 CALM      30.09S VSB 1/2
BELLEVILLE     CLEAR     71  71 100 NW2       30.07S
CAHOKIA*       CLOUDY    72  70  93 CALM      30.08S FOG
SPARTA*        CLEAR     71  70  97 CALM      30.10R
$$

ILZ064>066-069>071-074>076-080>082-084>086-088>090-092>094-310600-
SOUTH-CENTRAL ILLINOIS

CITY           SKY/WX    TMP DP  RH WIND       PRES   REMARKS
CARBONDALE     CLEAR     71  69  93 W3        30.07S
EFFINGHAM*     MOCLDY    73  73 100 CALM      30.08F
MARION         CLEAR     73  72  94 NW3       30.07S
MT. VERNON     CLEAR     73  68  83 CALM      30.08R
CENTRALIA*     PTCLDY    74  73  98 CALM      30.07S
SALEM*         CLOUDY    72  70  93 CALM      30.08R FOG
METROPOLIS*    CLEAR     76  73  88 CALM      30.05S
$$

ILZ067-068-072-073-078-083-087-091-310600-
SOUTHEAST ILLINOIS

CITY           SKY/WX    TMP DP  RH WIND       PRES   REMARKS
LAWRENCEVILLE  CLEAR     73  73 100 N3        30.06F
FLORA*         CLEAR     75  73  92 N3        30.07S
FAIRFIELD*       N/A     74  73  95 CALM      30.06S
HARRISBURG*    CLEAR     76  73  93 N6        30.05S
ROBINSON*      PTCLDY    69  69  99 CALM      30.07S
CARMI*         CLEAR     74  72  93 N3        30.05S
$$

ABBREVIATIONS USED IN REMARKS
   TC - TEMPERATURE IN CELSIUS
  WCI - WIND CHILL INDEX
   HX - HEAT INDEX
  VSB - VISIBILITY
$$





USA.gov is the U.S. government's official web portal to all federal, state and local government web resources and services.